[[{"header":{"parameterUnit":"m.s-1","parameterCategory":1,"la1":30.2991,"la2":30.254,"lo1":-89.0895,"lo2":-89.0444,"dy":0.0017,"dx":0.0017,"nx":28,"ny":28,"refTime":"2025-05-01T09:00:00:Z","depth":0,"parameterNumber":2,"parameterNumberName":"U-component_of_WINDS"},"data":[0,0,0,0,0,0,0,0,0,0,0,0,0,0,0,0,0,0,0,0,0,0,0,0,0,0,0,0,0,0,0,0,0,0,0,0,0,0,0,0,0,0,0,0,0,0,0,0,0,0,0,0,0,0,0,0,0,0,-1.5262,-1.5263,0,-1.5316,-1.5317,-1.5318,-1.5399,-1.54,-1.5401,-1.5403,-1.5455,-1.5455,-1.5455,0,0,0,0,0,0,0,0,0,0,0,0,0,-1.5226,-1.5227,-1.5262,-1.5263,-1.5264,-1.5316,-1.5317,-1.5318,-1.5398,-1.54,-1.5402,-1.5403,-1.5455,-1.5455,-1.5455,0,0,0,0,0,0,0,0,0,0,0,0,0,-1.5257,-1.5227,-1.5262,-1.531,-1.5315,-1.5316,-1.5317,-1.5318,-1.5398,-1.54,-1.5402,-1.5404,-1.5455,-1.5455,-1.5455,-1.5413,0,0,-1.5455,-1.5455,0,0,0,0,0,0,0,0,-1.5255,-1.5258,-1.5303,-1.5307,-1.5312,-1.5353,-1.5324,-1.535,-1.5397,-1.5366,-1.5403,-1.5405,-1.5419,-1.5422,-1.5428,-1.5415,-1.5417,-1.5455,-1.5455,-1.5456,-1.5456,0,0,0,0,0,0,0,-1.5253,-1.5256,-1.5284,-1.5303,-1.5309,-1.5328,-1.5335,-1.5329,-1.538,-1.5369,-1.5375,-1.5381,-1.5422,-1.5427,-1.5429,-1.5418,-1.5455,-1.5455,-1.5456,-1.5456,-1.5373,-1.537,0,0,0,0,0,0,-1.5244,-1.5254,-1.5282,-1.5285,-1.5289,-1.5327,-1.5335,-1.5338,-1.538,-1.5389,-1.5379,-1.5384,-1.5426,-1.5429,-1.5432,-1.5384,-1.5456,-1.5456,-1.5456,-1.5375,-1.5372,-1.537,0,0,0,0,0,0,-1.5243,-1.5246,-1.528,-1.5271,-1.5277,-1.5326,-1.5328,-1.5338,-1.5343,-1.5388,-1.5397,-1.5375,-1.5428,-1.5431,-1.5417,-1.5387,-1.5456,-1.5456,-1.5378,-1.5374,-1.5371,-1.5288,0,0,0,0,0,0,-1.5242,-1.5245,-1.523,-1.5271,-1.5277,-1.5264,-1.5326,-1.5337,-1.5343,-1.5351,-1.5386,-1.5394,-1.543,-1.5416,-1.5417,-1.5388,-1.5456,-1.538,-1.5376,-1.5372,-1.5293,-1.5282,-1.5272,0,0,0,0,0,-1.524,-1.5204,-1.5229,-1.5232,-1.526,-1.5263,-1.5266,-1.5309,-1.534,-1.5325,-1.5354,-1.5393,-1.539,-1.5414,-1.5415,-1.5386,-1.5382,-1.5377,-1.5372,-1.5298,-1.5284,-1.5272,0,0,0,0,0,0,-1.5157,-1.521,-1.5238,-1.5214,-1.5233,-1.5276,-1.5258,-1.5293,-1.5303,-1.531,-1.5362,-1.5369,-1.5347,-1.5366,-1.5391,-1.5347,-1.5392,-1.5387,-1.5335,-1.5322,-1.5312,-1.5307,-1.5456,0,0,0,0,0,-1.5136,-1.5135,-1.5181,-1.5155,-1.5164,-1.5209,-1.5212,-1.5244,-1.5265,-1.5273,-1.5301,-1.532,-1.5323,-1.5324,-1.533,-1.5297,-1.5305,-1.5278,-1.5267,-1.5258,-1.5252,-1.5235,-1.5223,-1.5353,-1.5353,-1.5353,0,0,-1.5092,-1.5121,-1.5117,-1.5139,-1.5158,-1.5155,-1.5215,-1.5209,-1.5207,-1.5272,-1.526,-1.5281,-1.5305,-1.5281,-1.5272,-1.5295,-1.5219,-1.5252,-1.5244,-1.5243,-1.5229,-1.5216,-1.5205,-1.535,-1.535,-1.5351,0,0,-1.501,-1.5033,-1.5013,-1.5031,-1.5059,-1.509,-1.5085,-1.5123,-1.514,-1.5128,-1.5177,-1.5175,-1.518,-1.5195,-1.5203,-1.5128,-1.5164,-1.5129,-1.5072,-1.5055,-1.5045,-1.5036,-1.5007,-1.4997,-1.5123,-1.5123,-1.5123,0,-1.4952,-1.495,-1.4999,-1.499,-1.4997,-1.5058,-1.5038,-1.5053,-1.508,-1.5084,-1.5111,-1.5118,-1.5139,-1.5118,-1.51,-1.5106,-1.5101,-1.5124,-1.5043,-1.5034,-1.5026,-1.5,-1.4989,-1.5119,-1.5119,-1.512,-1.512,0,-1.4876,-1.4874,-1.4855,-1.4881,-1.4887,-1.4872,-1.4918,-1.4918,-1.4949,-1.4977,-1.4964,-1.4991,-1.5003,-1.5001,-1.5031,-1.4985,-1.4999,-1.5033,-1.508,-1.5009,-1.4984,-1.4975,-1.5112,-1.5114,-1.5115,-1.5116,0,0,-1.4741,-1.4796,-1.4788,-1.48,-1.4836,-1.4835,-1.4823,-1.4835,-1.4834,-1.4851,-1.4841,-1.4845,-1.4877,-1.4886,-1.4919,-1.4904,-1.4841,-1.4941,-1.4942,-1.492,-1.4789,-1.4762,-1.4749,-1.4866,-1.4864,-1.4863,-1.4787,0,-1.4665,-1.4649,-1.4692,-1.4664,-1.4662,-1.472,-1.4709,-1.4729,-1.4755,-1.4756,-1.4785,-1.4785,-1.4829,-1.4835,-1.4823,-1.4851,-1.4815,-1.4857,-1.4856,-1.4855,-1.4846,-1.4737,-1.4708,-1.4634,-1.4778,-1.4776,-1.4775,0,-1.4574,-1.4587,-1.4559,-1.4596,-1.4597,-1.4587,-1.4602,-1.4603,-1.4627,-1.4646,-1.4657,-1.4695,-1.4685,-1.4731,-1.4717,-1.4745,-1.4747,-1.4761,-1.476,-1.4759,-1.4809,-1.4732,-1.4612,-1.46,-1.4761,-1.4762,-1.4763,0,-1.4477,-1.4488,-1.4472,-1.4482,-1.4525,-1.4516,-1.4534,-1.456,-1.4565,-1.4578,-1.4581,-1.4592,-1.4598,-1.4605,-1.4645,-1.4675,-1.4626,-1.4676,-1.464,-1.4639,-1.4626,-1.4625,-1.4503,-1.463,-1.463,-1.463,-1.4631,0,-1.4386,-1.4366,-1.4429,-1.4419,-1.4398,-1.4449,-1.4427,-1.445,-1.4473,-1.4467,-1.4519,-1.4512,-1.4567,-1.4566,-1.4598,-1.458,-1.4583,-1.4598,-1.4606,-1.4592,-1.459,-1.4592,-1.4598,-1.4628,-1.4628,-1.4629,-1.4629,0,-1.4273,-1.4315,-1.4301,-1.4344,-1.4354,-1.4337,-1.4373,-1.4365,-1.4394,-1.4387,-1.4388,-1.4433,-1.4436,-1.4477,-1.4488,-1.4509,-1.4478,-1.4497,-1.447,-1.4475,-1.4437,-1.4439,-1.431,-1.4295,-1.4433,-1.4432,-1.4431,0,-1.4211,-1.4198,-1.4239,-1.424,-1.4255,-1.4256,-1.4261,-1.431,-1.4313,-1.434,-1.4328,-1.4335,-1.4342,-1.4343,-1.4376,-1.4384,-1.4402,-1.4357,-1.4404,-1.439,-1.44,-1.4399,-1.4397,-1.4346,-1.4344,-1.4343,-1.4342,0,-1.4097,-1.4119,-1.4125,-1.4138,-1.4144,-1.4156,-1.4172,-1.4169,-1.4223,-1.4224,-1.4227,-1.4233,-1.4245,-1.425,-1.4264,-1.4282,-1.4319,-1.4327,-1.4319,-1.4303,-1.4288,-1.4294,-1.4441,-1.4329,-1.433,-1.4331,-1.4332,-1.4332,-1.4007,-1.3997,-1.4025,-1.403,-1.4047,-1.4061,-1.4055,-1.4084,-1.4088,-1.4102,-1.4131,-1.4129,-1.4153,-1.4176,-1.419,-1.4189,-1.4212,-1.4201,-1.4198,-1.4194,-1.4185,-1.4289,-1.4192,-1.4192,-1.4193,-1.4193,-1.4193,0,-1.3895,-1.3916,-1.392,-1.3941,-1.3944,-1.3982,-1.4001,-1.4001,-1.3999,-1.4019,-1.4026,-1.4029,-1.4034,-1.4068,-1.4077,-1.407,-1.4087,-1.407,-1.407,-1.4073,-1.4165,-1.417,-1.4056,-1.4056,-1.4056,-1.4056,-1.4056,-1.4056,-1.3836,-1.3821,-1.3846,-1.3839,-1.3861,-1.386,-1.3868,-1.388,-1.3896,-1.3897,-1.3902,-1.3925,-1.395,-1.3961,-1.3967,-1.3977,-1.3977,-1.3954,-1.3969,-1.4054,-1.4067,-1.408,-1.4085,-1.3954,-1.3954,-1.3877,-1.3877,-1.3876]},{"header":{"parameterUnit":"m.s-1","parameterCategory":1,"la1":30.2991,"la2":30.254,"lo1":-89.0895,"lo2":-89.0444,"dy":0.0017,"dx":0.0017,"nx":28,"ny":28,"refTime":"2025-05-01T09:00:00:Z","depth":0,"parameterNumber":3,"parameterNumberName":"V-component_of_WINDS"},"data":[0,0,0,0,0,0,0,0,0,0,0,0,0,0,0,0,0,0,0,0,0,0,0,0,0,0,0,0,0,0,0,0,0,0,0,0,0,0,0,0,0,0,0,0,0,0,0,0,0,0,0,0,0,0,0,0,0,0,6.6648,6.6647,0,6.6577,6.6576,6.6575,6.6474,6.6473,6.6471,6.6469,6.6393,6.6393,6.6392,0,0,0,0,0,0,0,0,0,0,0,0,0,6.6696,6.6695,6.6648,6.6647,6.6646,6.6577,6.6576,6.6575,6.6475,6.6473,6.6471,6.6469,6.6393,6.6393,6.6392,0,0,0,0,0,0,0,0,0,0,0,0,0,6.6655,6.6695,6.6648,6.6588,6.6582,6.6577,6.6576,6.6575,6.6475,6.6473,6.647,6.6468,6.6394,6.6393,6.6392,6.644,0,0,6.639,6.639,0,0,0,0,0,0,0,0,6.6657,6.6653,6.6597,6.6592,6.6585,6.6532,6.6565,6.6529,6.6476,6.6516,6.6469,6.6466,6.6441,6.6437,6.6429,6.6436,6.6433,6.639,6.639,6.639,6.6389,0,0,0,0,0,0,0,6.666,6.6656,6.6619,6.6597,6.6589,6.6564,6.6555,6.6558,6.6494,6.6512,6.6504,6.6498,6.6437,6.643,6.6426,6.6432,6.639,6.639,6.6389,6.6389,6.6476,6.6479,0,0,0,0,0,0,6.6672,6.6659,6.6622,6.6617,6.6616,6.6565,6.6556,6.6552,6.6493,6.6482,6.65,6.6493,6.6432,6.6427,6.6423,6.6474,6.639,6.6389,6.6389,6.6473,6.6477,6.6479,0,0,0,0,0,0,6.6674,6.667,6.6625,6.6636,6.6628,6.6567,6.6563,6.6551,6.6543,6.6484,6.6472,6.6504,6.643,6.6424,6.6437,6.647,6.6389,6.6388,6.647,6.6474,6.6478,6.6578,0,0,0,0,0,0,6.6675,6.6671,6.6688,6.6637,6.6628,6.664,6.6566,6.6552,6.6543,6.6534,6.6485,6.6474,6.6427,6.6438,6.6436,6.6468,6.6388,6.6467,6.6472,6.6477,6.6571,6.6585,6.6596,0,0,0,0,0,6.6678,6.6718,6.669,6.6686,6.6649,6.6642,6.6637,6.6583,6.6546,6.6563,6.6526,6.6476,6.6468,6.6441,6.6437,6.6469,6.6464,6.647,6.6476,6.6565,6.6582,6.6596,0,0,0,0,0,0,6.6773,6.671,6.6678,6.6703,6.6679,6.6625,6.6644,6.6602,6.6587,6.6578,6.6512,6.6502,6.6523,6.6498,6.6468,6.6513,6.6459,6.6465,6.6528,6.6543,6.6555,6.6559,6.6387,0,0,0,0,0,6.6798,6.6798,6.6743,6.6771,6.6761,6.6706,6.67,6.6662,6.6633,6.6622,6.6585,6.6559,6.655,6.6546,6.6535,6.6569,6.6556,6.6589,6.6602,6.6613,6.6617,6.6633,6.6647,6.6499,6.6499,6.6499,0,0,6.6847,6.6813,6.6817,6.679,6.6766,6.6767,6.6697,6.6701,6.6701,6.6622,6.6631,6.6605,6.6571,6.6595,6.6603,6.6574,6.6656,6.662,6.6629,6.6628,6.6641,6.6655,6.6667,6.6503,6.6503,6.6502,0,0,6.6937,6.6912,6.6932,6.6911,6.6878,6.6841,6.6847,6.68,6.6779,6.6789,6.6729,6.6729,6.6716,6.6695,6.6682,6.677,6.6722,6.6768,6.6832,6.6848,6.686,6.687,6.6899,6.6911,6.6774,6.6774,6.6774,0,6.7002,6.7002,6.6948,6.6956,6.6946,6.6878,6.6897,6.688,6.6844,6.6838,6.6807,6.6791,6.6764,6.6781,6.6803,6.6796,6.6799,6.6771,6.6863,6.6872,6.6881,6.6908,6.6919,6.6779,6.6779,6.6778,6.6778,0,6.7083,6.7085,6.7105,6.7074,6.7066,6.7081,6.7029,6.7028,6.6992,6.6959,6.697,6.6936,6.6917,6.6919,6.6883,6.6932,6.6915,6.6875,6.6818,6.6901,6.6925,6.6935,6.6787,6.6785,6.6784,6.6782,0,0,6.7225,6.7168,6.7176,6.7161,6.7121,6.7121,6.7133,6.7116,6.7116,6.7096,6.7103,6.7096,6.706,6.7046,6.7007,6.7022,6.7092,6.698,6.6978,6.7,6.7143,6.7171,6.7184,6.7063,6.7065,6.7066,6.7145,0,6.7305,6.7322,6.7276,6.7304,6.7304,6.7242,6.7253,6.723,6.7201,6.7197,6.7164,6.716,6.7113,6.7104,6.7116,6.7081,6.7119,6.7075,6.7067,6.7068,6.7074,6.7197,6.7226,6.7301,6.7154,6.7156,6.7157,0,6.7399,6.7384,6.7413,6.7373,6.7372,6.7382,6.7364,6.7362,6.7335,6.7313,6.73,6.7256,6.7265,6.7215,6.7226,6.7197,6.7192,6.7175,6.7177,6.717,6.7114,6.7191,6.7324,6.7334,6.7172,6.7171,6.717,0,6.7497,6.7485,6.7501,6.7491,6.7445,6.7454,6.7435,6.7406,6.74,6.7385,6.738,6.7366,6.7357,6.7348,6.7301,6.727,6.7318,6.7264,6.7298,6.7299,6.7307,6.7306,6.7438,6.7311,6.731,6.731,6.731,0,6.7588,6.7607,6.7544,6.7554,6.7574,6.7522,6.7544,6.7519,6.7495,6.7498,6.7445,6.7449,6.7389,6.7387,6.7352,6.7366,6.7363,6.7345,6.7334,6.7347,6.7349,6.7339,6.7332,6.7313,6.7312,6.7312,6.7311,0,6.7699,6.7658,6.767,6.7628,6.7618,6.7634,6.7597,6.7604,6.7574,6.7579,6.7578,6.7529,6.7524,6.7479,6.7464,6.744,6.7467,6.7448,6.7476,6.7468,6.7504,6.75,6.7631,6.7645,6.7512,6.7513,6.7515,0,6.7757,6.7771,6.7731,6.773,6.7714,6.7714,6.7707,6.7659,6.7654,6.7627,6.7637,6.7629,6.7618,6.7613,6.7576,6.7565,6.7543,6.7591,6.7541,6.7554,6.7541,6.7539,6.754,6.7599,6.7601,6.7602,6.7604,0,6.7865,6.7845,6.7839,6.7827,6.7821,6.7809,6.7793,6.7795,6.7742,6.774,6.7735,6.7728,6.7714,6.7705,6.7688,6.7668,6.7627,6.7621,6.7627,6.7638,6.7653,6.7643,6.75,6.7616,6.7615,6.7614,6.7613,6.7613,6.7949,6.7959,6.7933,6.7928,6.7912,6.7899,6.7904,6.7876,6.7871,6.7856,6.7828,6.7828,6.7803,6.7776,6.776,6.7759,6.7734,6.7744,6.7746,6.7749,6.7755,6.7657,6.7756,6.7755,6.7755,6.7755,6.7754,0,6.8052,6.8033,6.803,6.801,6.8007,6.7972,6.7954,6.7953,6.7954,6.7935,6.7927,6.7922,6.7915,6.788,6.7869,6.7874,6.7855,6.7873,6.787,6.7866,6.7779,6.7773,6.7889,6.7889,6.7889,6.7889,6.7888,6.7888,6.8105,6.8119,6.8097,6.8103,6.8084,6.8083,6.8076,6.8064,6.8049,6.8046,6.8041,6.8019,6.7993,6.7981,6.7973,6.7962,6.7959,6.7983,6.7966,6.7885,6.7872,6.7859,6.7853,6.7984,6.7984,6.8053,6.8053,6.8054]}]]